Terug naar catalogus

STARLINK-31241

ActiefCommunicatieVLEO
NORAD 59045·PAYLOAD·🇺🇸 United States

Gelanceerd Feb 25, 2024 vanaf Cape Canaveral Space Force Station

Loading…

Volgende Passages (komende 24 uur)

TLE

VersSource: CelesTrak SupGP

Epoch: Sep 14, 2026, 21:00 UTC

1 59045C 24038Y   26257.87548611  .00058632  00000+0  21235-2 0  2577
2 59045  43.0043  35.3779 0001726 280.5589 273.6840 15.27550667    11

Volg STARLINK-31241 in realtime met AllMySat

Download on the App Store